Terminal Aerodrome Forecast
Issued by NWS

Home | Current Version | Previous Version | Text Only | Print | Product List | Glossary On
Versions: 1 2 3 4 5 6 7 8 9 10 11 12
000
FTUS44 KEPZ 280500
TAFLRU
TAF
KLRU 280535Z 2806/2906 23005KT P6SM SKC
     FM280900 31006KT P6SM SKC
     FM282000 26010G20KT P6SM SKC
     FM290300 28009KT P6SM FEW250=

USA.gov is the U.S. government's official web portal to all federal, state and local government web resources and services.